Weather History for KTMB - February, 2013

Change the Weather History Date:

Saturday, February 16, 2013

  Actual Average (KMIA) Record (KMIA)
Temperature  
Mean Temperature 66 °F 70 °F  
Max Temperature 75 °F 78 °F 88 °F (1897)
Min Temperature 55 °F 63 °F 34 °F (1943)
Degree Days  
Heating Degree Days 0 1  
Month to date heating degree days 16  
Since 1 July heating degree days 106  
Cooling Degree Days 1 6  
Month to date cooling degree days 90  
Year to date cooling degree days 241  
Growing Degree Days 16 (Base 50)    
Moisture  
Dew Point 58 °F    
Average Humidity 79    
Maximum Humidity 97    
Minimum Humidity 38    
Precipitation  
Precipitation 0.10 in 0.08 in 1.96 in (1915)
Month to date precipitation 1.30  
Year to date precipitation 2.92  
Snow  
Snow 0.00 in - - ()
Month to date snowfall  
Since 1 July snowfall  
Snow Depth -    
Sea Level Pressure  
Sea Level Pressure 29.95 in    
Wind  
Wind Speed 7 mph (NNW)    
Max Wind Speed 22 mph    
Max Gust Speed 28 mph    
Visibility 9 miles    
Events Rain    
T = Trace of Precipitation, MM = Missing Value Source: NWS Daily Summary

Daily Weather History Graph

Daily Weather History Graph

Search for Another Location

Airport or City:

Trip Planner

Search our weather history database for the weather conditions in past years. The results will help you decide how hot, cold, wet, or windy it might be!

Date:

Astronomy

Feb. 16, 2013 Rise Set
Actual Time 6:55 AM EST 6:16 PM EST
Civil Twilight 6:32 AM EST 6:39 PM EST
Nautical Twilight 6:05 AM EST 7:06 PM EST
Astronomical Twilight 5:38 AM EST 7:33 PM EST
Moon 10:51 AM EST (2/16) No Moon Set
Length of Visible Light 12h 07m
Length of Day
11h 20m
Waxing Crescent, 39% of the Moon is Illuminated
Feb 16
Waxing Crescent
Feb 17
First Quarter
Feb 25
Full
Mar 4
Last Quarter
Mar 11
New

Hourly Weather History & Observations

Time (EST) Temp. Dew Point Humidity Pressure Visibility Wind Dir Wind Speed Gust Speed Precip Events Conditions
12:23 AM 66.2 °F 64.4 °F 94% 29.96 in 7.0 mi Calm Calm - 0.00 in   Overcast
12:53 AM 66.0 °F 64.9 °F 96% 29.95 in 6.0 mi Calm Calm - 0.01 in   Overcast
1:25 AM 66.2 °F 64.4 °F 94% 29.94 in 7.0 mi NNW 4.6 mph - 0.00 in Rain Light Rain
1:53 AM 66.0 °F 64.9 °F 96% 29.94 in 8.0 mi North 5.8 mph - 0.01 in Rain Light Rain
2:19 AM 66.2 °F 64.4 °F 94% 29.93 in 5.0 mi NNW 10.4 mph - 0.02 in Rain Rain
2:53 AM 66.0 °F 64.9 °F 96% 29.92 in 10.0 mi NNW 6.9 mph - 0.04 in   Overcast
3:03 AM 66.2 °F 64.4 °F 94% 29.92 in 9.0 mi NNW 5.8 mph - 0.00 in Rain Light Rain
3:17 AM 66.2 °F 64.4 °F 94% 29.92 in 10.0 mi NNW 6.9 mph - 0.00 in Rain Light Rain
3:53 AM 64.9 °F 64.0 °F 97% 29.91 in 9.0 mi North 8.1 mph - 0.00 in Rain Light Rain
4:27 AM 64.4 °F 62.6 °F 94% 29.90 in 10.0 mi North 6.9 mph - 0.03 in Rain Light Rain
4:36 AM 64.4 °F 62.6 °F 94% 29.90 in 10.0 mi North 5.8 mph - 0.03 in   Overcast
4:50 AM 64.4 °F 62.6 °F 94% 29.90 in 10.0 mi North 5.8 mph - 0.04 in   Overcast
4:53 AM 64.0 °F 62.1 °F 93% 29.90 in 10.0 mi North 3.5 mph - 0.04 in   Overcast
5:16 AM 64.4 °F 62.6 °F 94% 29.91 in 10.0 mi NNW 5.8 mph - N/A   Overcast
5:53 AM 64.0 °F 62.1 °F 93% 29.91 in 10.0 mi North 4.6 mph - 0.00 in Rain Light Rain
6:53 AM 64.4 °F 62.6 °F 94% 29.92 in 10.0 mi Calm Calm - N/A   Overcast
7:53 AM 64.9 °F 63.0 °F 93% 29.93 in 10.0 mi NNW 5.8 mph - N/A   Overcast
8:53 AM 64.9 °F 62.1 °F 90% 29.95 in 10.0 mi NNW 6.9 mph - N/A   Mostly Cloudy
9:03 AM 66.2 °F 62.6 °F 88% 29.95 in 10.0 mi NNW 8.1 mph - N/A   Mostly Cloudy
9:53 AM 66.9 °F 63.0 °F 87% 29.96 in 10.0 mi NW 6.9 mph - N/A   Mostly Cloudy
10:53 AM 69.1 °F 62.1 °F 78% 29.97 in 10.0 mi NW 11.5 mph - N/A   Partly Cloudy
11:53 AM 73.0 °F 61.0 °F 66% 29.96 in 10.0 mi NW 13.8 mph - N/A   Scattered Clouds
12:53 PM 73.9 °F 55.0 °F 52% 29.94 in 10.0 mi NW 15.0 mph - N/A   Clear
1:53 PM 75.0 °F 52.0 °F 44% 29.92 in 10.0 mi WNW 15.0 mph - N/A   Mostly Cloudy
2:53 PM 75.0 °F 52.0 °F 44% 29.91 in 10.0 mi West 16.1 mph - N/A   Mostly Cloudy
3:53 PM 73.0 °F 46.0 °F 38% 29.93 in 10.0 mi WNW 21.9 mph 27.6 mph N/A   Partly Cloudy
4:53 PM 70.0 °F 48.9 °F 47% 29.95 in 10.0 mi WNW 20.7 mph 27.6 mph N/A   Mostly Cloudy
5:53 PM 66.0 °F 48.0 °F 52% 29.98 in 10.0 mi WNW 13.8 mph - N/A   Clear
6:53 PM 64.0 °F 51.1 °F 63% 29.99 in 10.0 mi WNW 12.7 mph - N/A   Clear
7:53 PM 63.0 °F 51.1 °F 65% 30.02 in 10.0 mi NW 16.1 mph - N/A   Clear
8:53 PM 61.0 °F 51.1 °F 70% 30.06 in 10.0 mi NW 13.8 mph - N/A   Scattered Clouds
9:53 PM 59.0 °F 46.9 °F 64% 30.08 in 10.0 mi NNW 12.7 mph - N/A   Clear
10:53 PM 57.0 °F 45.0 °F 64% 30.10 in 10.0 mi NNW 17.3 mph 25.3 mph N/A   Clear
11:53 PM 55.9 °F 46.0 °F 69% 30.11 in 10.0 mi NNW 15.0 mph - N/A   Clear